Simultaneous Nadir Overpasses (SNOs) Predictions

Prediction of SNOs between GOES-16 and AQUA Satellite Orbit:

Table of predicted SNOs for the next 14.0 days since TLE Epoch: 12/12/2020
Index Date Time (GOES-16) GOES-16 Lat,Lon AQUA Lat,Lon Distance(km) Time Diff (sec)
1 12/12/2020 06:50:24 0.00, -75.14 0.69, -78.32 360.96 80
2 12/14/2020 06:38:12 0.00, -75.14 0.07, -75.36 25.55 80
3 12/16/2020 06:23:21 -0.01, -75.13 -0.61, -72.41 310.35 80
4 12/16/2020 18:44:45 0.01, -75.14 -0.51, -77.60 279.43 80
5 12/18/2020 18:35:13 0.01, -75.14 0.11, -74.64 57.47 80
6 12/20/2020 18:23:01 0.02, -75.16 0.75, -71.68 395.42 80
7 12/21/2020 06:44:16 -0.02, -75.16 0.35, -76.83 190.65 80
8 12/23/2020 06:29:24 -0.02, -75.18 -0.29, -73.87 148.27 80
9 12/23/2020 18:50:49 0.02, -75.19 -0.78, -79.07 441.16 80
10 12/25/2020 06:17:12 -0.02, -75.21 -0.93, -70.92 487.68 80
11 12/25/2020 18:38:36 0.03, -75.22 -0.19, -76.10 101.62 80
